Home   Weather   Granby   Past weeks

Flag for Canada Past Weather in Granby, Quebec, Canada — Yesterday and Last 2 Weeks

Now
31 °F

Chilly.


Feels Like: 24 °F
Forecast: 32 / 37 °F
Wind: 7 mph from Northeast

Location: Frelighsburg

Current Time: Jan 22, 2017 at 9:07:53 am

Latest Report: Jan 22, 2017 at 8:00 am


Visibility: N/A

Pressure: 29.81 "Hg

Humidity: 100%

Dew Point: 31 °F

Location of GranbyLocation

Past Weather in Granby — Graph

°F

Granby Temperature Yesterday

Maximum temperature yesterday: 38 °F (at 2:00 pm)
Minimum temperature yesterday: 33 °F (at 12:00 am)
Average temperature yesterday: 35 °F

High & Low Weather Summary for the Past Weeks

 TemperatureHumidityPressure
High50 °F (Jan 12, 2:00 pm)100% (Jan 12, 6:00 pm)30.74 "Hg (Jan 12, 6:00 pm)
Low-6 °F (Jan 9, 7:00 am)32% (Jan 12, 12:00 am)29.71 "Hg (Jan 21, 1:00 pm)
Average25 °F78%30.15 "Hg
* Reported Jan 7 7:00 am — Jan 22 7:00 am, Granby, Weather by CustomWeather, © 2017

Note: Actual official high and low records may vary slightly from our data, if they occured in-between our weather recording intervals... More about our weather records

Advertising

Granby Weather History for the Previous 24 Hours

Scroll right to see more
 ConditionsComfort  
Time TempWeatherWind HumidityBarometerVisibility
7:00 am
Sun, Jan 22
31 °FChilly.7 mph100%29.80 "HgN/A
6:00 am32 °FChilly.5 mph100%29.78 "HgN/A
5:00 am33 °FChilly.2 mph100%29.78 "HgN/A
4:00 am33 °FChilly.3 mph100%29.78 "HgN/A
3:00 am33 °FChilly.1 mph100%29.79 "HgN/A
2:00 am34 °FChilly.1 mph100%29.77 "HgN/A
1:00 am34 °FChilly.1 mph100%29.76 "HgN/A
12:00 am34 °FChilly.2 mph100%29.77 "HgN/A
11:00 pm
Sat, Jan 21
34 °FChilly.1 mph100%29.77 "HgN/A
10:00 pm34 °FChilly.2 mph100%29.76 "HgN/A
9:00 pm34 °FChilly.1 mph100%29.76 "HgN/A
8:00 pm35 °FChilly.1 mph100%29.78 "HgN/A
7:00 pm33 °FChilly.3 mph100%29.78 "HgN/A
6:00 pm36 °FChilly.2 mph100%29.76 "HgN/A
5:00 pm35 °FChilly.3 mph100%29.74 "HgN/A
4:00 pm37 °FChilly.2 mph100%29.73 "HgN/A
3:00 pm37 °FChilly.2 mph100%29.73 "HgN/A
2:00 pm38 °FChilly.2 mph100%29.72 "HgN/A
1:00 pm37 °FChilly.3 mph100%29.71 "HgN/A
12:00 pm37 °FChilly.3 mph100%29.73 "HgN/A
11:00 am36 °FChilly.5 mph100%29.76 "HgN/A
10:00 am36 °FChilly.5 mph100%29.78 "HgN/A
9:00 am35 °FChilly.5 mph100%29.78 "HgN/A
Weather by CustomWeather, © 2017

See weather overviewHow to use our weather pages